HYLAS 4

Last updated on Mon Oct 14 2024 00:02:40 GMT+0000 (Coordinated Universal Time)

1 43272U 18033B 24286.97966135 -.00000233 00000+0 00000+0 0 9998 2 43272 0.0672 268.9018 0001114 279.2733 153.0723 1.00277253 23934
UTC large
Height (km)
Speed (km/s)
/
Latitude / Longitude
Inclination (degrees)
Orbital Period (minutes)
Azimuth
Elevation
Range (km)
Doppler Factor

Next 0 passes for location: London (51.5072 / 0.1276)

Sorry there are no passes over London.